Regional Weather Roundup
Issued by NWS

Home | Current Version | Previous Version | Text Only | Print | Product List | Glossary On
Versions: 1 2 3 4 5 6 7 8 9 10 11 12 13 14 15 16 17 18 19 20 21 22 23 24 25 26 27 28 29 30 31 32 33 34 35 36 37 38 39 40 41 42 43 44 45 46 47 48 49 50
000
ASUS44 KFWD 270015
RWRTX
NORTH TEXAS HOURLY WEATHER ROUNDUP
NATIONAL WEATHER SERVICE FORT WORTH TX
700 PM CDT WED APR 26 2017

NOTE: "FAIR" INDICATES FEW OR NO CLOUDS BELOW 12,000 FEET WITH NO
SIGNIFICANT WEATHER AND/OR OBSTRUCTIONS TO VISIBILITY.

TXZ118-119-270100-
DALLAS/FORT WORTH METROPLEX

CITY           SKY/WX    TMP DP  RH WIND       PRES   REMARKS
DFW AIRPORT    MOSUNNY   62  46  55 NW17G28   29.70R
6HR MIN TEMP:  59; 6HR MAX TEMP:  64;

DALLAS LOVE    MOSUNNY   62  46  55 NW18      29.71R
6HR MIN TEMP:  59; 6HR MAX TEMP:  65;

FTW MEACHAM    MOSUNNY   62  47  57 NW14G22   29.72R
6HR MIN TEMP:  58; 6HR MAX TEMP:  65;

DAL-EXECUTIVE  MOSUNNY   61  48  62 NW16G24   29.70R
6HR MIN TEMP:  59; 6HR MAX TEMP:  65;

FTW-ALLIANCE   MOSUNNY   61  45  55 NW13G24   29.71S
6HR MIN TEMP:  56; 6HR MAX TEMP:  63;

FTW-NAS-JRB    SUNNY     63  46  54 NW16      29.73R
6HR MIN TEMP:  60; 6HR MAX TEMP:  67;

FTW-SPINKS     MOSUNNY   63  46  55 NW14G22   29.73R
ARLINGTON      SUNNY     61  46  57 NW9G23    29.71R
6HR MIN TEMP:  59; 6HR MAX TEMP:  66;

GRAND PRAIRIE  SUNNY     61  45  55 W13G21    29.73R
ADDISON        MOSUNNY   59  46  63 W15G28    29.71R
MESQUITE       PTSUNNY   61  46  59 NW21      29.71R
LANCASTER      MOSUNNY   60  47  63 NW14G22   29.71R
6HR MIN TEMP:  59; 6HR MAX TEMP:  65;

$$

TXZ091>094-102>105-117-120-121-131>134-270100-
NORTH CENTRAL TEXAS

CITY           SKY/WX    TMP DP  RH WIND       PRES   REMARKS
SHRMAN/DENISON CLOUDY    55  46  72 W10G16    29.74R
6HR MIN TEMP:  53; 6HR MAX TEMP:  56;

GAINESVILLE    PTSUNNY   56  43  62 NW16G24   29.75R
6HR MIN TEMP:  51; 6HR MAX TEMP:  58;

BOWIE          SUNNY     60  44  54 NW10G20   29.73S
6HR MIN TEMP:  53; 6HR MAX TEMP:  62;

BRIDGEPORT     SUNNY     60  43  53 NW9G17    29.75S
6HR MIN TEMP:  53; 6HR MAX TEMP:  61;

DECATUR        MOSUNNY   59  43  56 NW12G21   29.72F
6HR MIN TEMP:  52; 6HR MAX TEMP:  60;

DENTON         MOSUNNY   59  45  59 NW20G25   29.71R
6HR MIN TEMP:  55; 6HR MAX TEMP:  61;

MCKINNEY       CLOUDY    58  49  72 NW15      29.71R
6HR MIN TEMP:  55; 6HR MAX TEMP:  58;

BONHAM         CLOUDY    54  46  76 NW12      29.71R
GREENVILLE     CLOUDY    59  50  72 NW8G16    29.70R
ROCKWALL       CLOUDY    59  48  65 NW18G24   29.71R
6HR MIN TEMP:  56; 6HR MAX TEMP:  59;

TERRELL        CLOUDY    59  48  67 NW10G22   29.71R
6HR MIN TEMP:  58; 6HR MAX TEMP:  63;

WAXAHACHIE     SUNNY     60  48  64 NW18G24   29.72R
6HR MIN TEMP:  60; 6HR MAX TEMP:  65;

CLEBURNE       SUNNY     61  48  63 NW17G24   29.74R
GRANBURY       SUNNY     64  45  50 W13G21    29.74S
6HR MIN TEMP:  61; 6HR MAX TEMP:  66;

$$

TXZ083>090-098>101-113>116-127>130-139>142-154-155-270100-
WESTERN NORTH TEXAS

CITY           SKY/WX    TMP DP  RH WIND       PRES   REMARKS
WICHITA FALLS  SUNNY     64  36  35 NW17      29.71F
6HR MIN TEMP:  53; 6HR MAX TEMP:  64;

VERNON         SUNNY     68  29  23 N16       29.73S
6HR MIN TEMP:  44; 6HR MAX TEMP:  94;

ABILENE        SUNNY     66  37  34 NW10G22   29.76F
6HR MIN TEMP:  54; 6HR MAX TEMP:  66;

ABILENE-DYESS  SUNNY     67  38  34 N13       29.75R
6HR MIN TEMP:  56; 6HR MAX TEMP:  68;

GRAHAM         SUNNY     62  41  45 NW10G17   29.73R
6HR MIN TEMP:  53; 6HR MAX TEMP:  64;

BRECKENRIDGE   SUNNY     66  38  36 NW6       29.75R
6HR MIN TEMP:  56; 6HR MAX TEMP:  67;

CISCO          SUNNY     64  41  42 N13       29.75F
RANGER         SUNNY     61  44  53 NW9       29.76R
6HR MIN TEMP:  55; 6HR MAX TEMP:  89;

MINERAL WELLS  SUNNY     62  43  49 NW14      29.73R
6HR MIN TEMP:  56; 6HR MAX TEMP:  63;

STEPHENVILLE   SUNNY     62  44  50 NW14      29.77R
6HR MIN TEMP:  60; 6HR MAX TEMP:  65;

COMANCHE       SUNNY     64  45  49 N15       29.75S
6HR MIN TEMP:  61; 6HR MAX TEMP:  70;

BROWNWOOD      SUNNY     64  41  42 NW10      29.77R
COLEMAN        SUNNY     66  38  35 N13       29.78R
6HR MIN TEMP:  63; 6HR MAX TEMP:  74;

$$

TXZ143>147-156>162-174-175-270100-
CENTRAL TEXAS

CITY           SKY/WX    TMP DP  RH WIND       PRES   REMARKS
WACO           SUNNY     67  48  50 NW15G23   29.70R
6HR MIN TEMP:  67; 6HR MAX TEMP:  76;

WACO-MCGREGOR  SUNNY     67  49  52 NW13      29.72R
6HR MIN TEMP:  67; 6HR MAX TEMP:  84;

HILLSBORO      SUNNY     64  48  56 NW22G28   29.71R
6HR MIN TEMP:  64; 6HR MAX TEMP:  70;

CORSICANA      SUNNY     66  50  56 NW20G28   29.70R
6HR MIN TEMP:  66; 6HR MAX TEMP:  71; 6HR PCP: TRACE;

MEXIA          SUNNY     67  48  51 NW14G31   29.68R
6HR MIN TEMP:  67; 6HR MAX TEMP:  76; 6HR PCP:  0.01;

HEARNE         SUNNY     72  53  51 NW20G26   29.68R
6HR MIN TEMP:  72; 6HR MAX TEMP:  89;

CAMERON        SUNNY     72  53  50 N17G24    29.68R
6HR MIN TEMP:  72; 6HR MAX TEMP:  90;

TEMPLE         SUNNY     69  50  50 NW18G25   29.71R
6HR MIN TEMP:  69; 6HR MAX TEMP:  87;

KILLEEN        SUNNY     69  45  41 NW20G25   29.71R
6HR MIN TEMP:  69; 6HR MAX TEMP:  84;

KILLEEN-SKYLRK SUNNY     69  48  47 NW17G24   29.72R
6HR MIN TEMP:  69; 6HR MAX TEMP:  85;

FORT HOOD      SUNNY     69  47  44 NW20      29.69R
6HR MIN TEMP:  69; 6HR MAX TEMP:  85;

GATESVILLE     SUNNY     68  45  42 NW15G22   29.74R
HAMILTON       SUNNY     66  45  46 NW17G24   29.75R
6HR MIN TEMP:  65; 6HR MAX TEMP:  74;

LAMPASAS       SUNNY     71  49  45 NW10G20   29.73R
6HR MIN TEMP:  71; 6HR MAX TEMP:  81;

$$

TXZ095>097-106>112-122>126-135>138-148>153-164>167-270100-
EAST TEXAS

CITY           SKY/WX    TMP DP  RH WIND       PRES   REMARKS
PARIS          CLOUDY    54  46  76 NW14      29.67R
6HR MIN TEMP:  54; 6HR MAX TEMP:  57;

SULPHUR SPRNGS CLOUDY    56  49  79 W16G22    29.71R
6HR MIN TEMP:  56; 6HR MAX TEMP:  61;

MOUNT PLEASANT CLOUDY    55  49  78 NW14G24   29.68R
6HR MIN TEMP:  55; 6HR MAX TEMP:  71; 6HR PCP:  0.24;

GILMER         CLOUDY    55  51  85 W7        29.67R
6HR MIN TEMP:  55; 6HR MAX TEMP:  78; 6HR PCP:  0.50;

MINEOLA        CLOUDY    57  50  77 NW10G18   29.69R
TYLER          CLOUDY    58  52  80 NW17G25   29.67R
6HR MIN TEMP:  58; 6HR MAX TEMP:  65; 6HR PCP:  0.28;

LONGVIEW       PTSUNNY   58  55  90 NW12      29.64R
6HR MIN TEMP:  58; 6HR MAX TEMP:  81; 6HR PCP:  0.29;

MARSHALL       CLOUDY    56  52  85 NW13G22   29.67R
6HR MIN TEMP:  56; 6HR MAX TEMP:  79; 6HR PCP:  0.33;

ATHENS         PTSUNNY   61  48  63 N10G17    29.67R
PALESTINE      MOSUNNY   64  54  68 NW15G29   29.68R
JACKSONVILLE   SUNNY     62  55  77 NW13      29.66R
HENDERSON      CLOUDY    59  52  77 NW7       29.67R
6HR MIN TEMP:  58; 6HR MAX TEMP:  84; 6HR PCP:  0.18;

CENTER         PTCLDY    64  60  86 NW13G20   29.65R
6HR MIN TEMP:  64; 6HR MAX TEMP:  87; 6HR PCP:  0.29;

NACOGDOCHES    MOSUNNY   63  55  77 NW14G23   29.63R
6HR MIN TEMP:  63; 6HR MAX TEMP:  84; 6HR PCP:  0.28;

LUFKIN         MOSUNNY   65  56  72 NW10G21   29.64R
6HR MIN TEMP:  65; 6HR MAX TEMP:  86; 6HR PCP:  0.25;

$$

SUPPLEMENTAL OBSERVATIONS (CENTRAL)

CITY           SKY/WX    TMP DP  RH WIND       PRES   REMARKS
DENISON DAM      N/A     57  48  72 NW26        N/A
CADDO GRASSLND   N/A     55  46  71 NW7G17      N/A
PAT MAYSE LAKE   N/A     54  50  87 W10         N/A
GREENVILLE       N/A     55  46  71 NW13        N/A
CEDAR HILL       N/A     63  48  59 NW7G17      N/A
A


USA.gov is the U.S. government's official web portal to all federal, state and local government web resources and services.